User:    Logout
Location:
(unspecified)
Time: 11:34:40
(UTC+00:00)
Language:

Cosmos 1408 Rocket - Orbit

View from above orbital plane
View from above orbital plane
View from above satellite
View from above satellite

Ground track
Ground track

The orbit data is extracted from the following two-line orbital elements,

1 13553U 82092B   17209.95055631 +.00000059 +00000-0 +42036-5 0  9995
2 13553 082.5679 195.1696 0019804 266.6832 149.5707 14.84128085862143
Epoch (UTC): 28 July 2017 22:48:48
Eccentricity: 0.0019804
inclination: 82.5679°
perigee height: 602 km
apogee height: 630 km
right ascension of ascending node: 195.1696°
argument of perigee: 266.6832°
revolutions per day: 14.84128085
mean anomaly at epoch: 149.5707°
orbit number at epoch: 86214

The dashed part of the orbit path shows where the satellite is in the earth's shadow,  

DLR